Terminal Aerodrome Forecast
Issued by NWS Twin Cities, MN

Home | Current Version | Previous Version | Graphics & Text | Print | Product List | Glossary On
Versions: 1 2 3 4 5 6 7 8 9 10 11 12 13 14 15 16 17 18 19 20 21 22 23 24 25 26 27 28
000
FTUS43 KMPX 250318 AAA
TAFMSP
TAF AMD
KMSP 250318Z 2503/2606 32007KT P6SM BKN050
     FM250600 31006KT P6SM FEW050
     FM251500 32012G19KT P6SM SKC
     FM260000 33005KT P6SM SKC=

USA.gov is the U.S. government's official web portal to all federal, state and local government web resources and services.